Location: Gleizolles
(44.4833°N, 6.7667°E)
Time: 11:29:28
(UTC+00:00)

Envisat - Pass Details

Date: 08 December 2021
Orbit: 764 x 766 km, 98.2° (Epoch: 20 January)

Event Time Altitude Azimuth Distance (km) Brightness Sun altitude
Rises 03:04:33 0° 34° (NNE) 3,241 6.7 -40.4°
Reaches altitude 10° 03:08:27 10° 64° (ENE) 2,308 6.1 -39.8°
Maximum altitude 03:10:27 12° 87° (E) 2,150 6.0 -39.4°
Drops below altitude 10° 03:12:28 10° 111° (ESE) 2,300 6.0 -39.0°
Sets 03:16:18 0° 141° (SE) 3,219 6.6 -38.4°
